This demonstration page uses our WeatherBlox Daily Observations layout. Learn more.

Left ArrowRight Arrow

39.12711, -84.51439

Hourly Observations for October 6, 2018

Temp ( °F °C ) Dew Point ( °F °C ) Humidity (%) Winds ( mph kmh ) Pressure ( in mb ) Visibility ( mi km ) Precip ( " mm )
12:53 am 00:53 Clear with Mist and Fog 69 20.6 69 20.6 100 100 N N/A 30.02 1017 4 6 N/A
1:23 am 01:23 Clear with Mist and Fog 69 20.6 69 20.6 100 100 S 3 6 30.00 1016 2 3 N/A
1:42 am 01:42 Mostly Cloudy with Mist and Fog 68 20 68 20 100 100 N N/A 30.00 1016 1 1 N/A
1:53 am 01:53 Mostly Cloudy with Fog 69 20.6 69 20.6 100 100 N N/A 30.02 1017 1 1 N/A
2:00 am 02:00 Mostly Clear with Mist and Fog 69 20.6 69 20.6 100 100 N N/A 30.00 1016 1 2 N/A
2:05 am 02:05 Mostly Clear with Mist and Fog 69 20.6 69 20.6 100 100 N N/A 30.00 1016 3 5 N/A
2:12 am 02:12 Clear with Mist and Fog 69 20.6 69 20.6 100 100 N N/A 30.00 1016 2 3 N/A
2:24 am 02:24 Clear with Mist and Fog 68 20 68 20 100 100 N N/A 30.00 1016 3 5 N/A
2:38 am 02:38 Clear with Mist and Fog 68 20 68 20 100 100 N N/A 30.00 1016 3 4 N/A
2:46 am 02:46 Clear with Mist and Fog 68 20 68 20 100 100 N N/A 30.00 1016 5 8 N/A
2:53 am 02:53 Clear with Mist and Fog 69 20.6 69 20.6 100 100 WSW 3 6 30.01 1016 6 10 N/A
3:20 am 03:20 Clear with Mist and Fog 68 20 68 20 100 100 N N/A 30.00 1016 3 4 N/A
3:41 am 03:41 Clear with Mist and Fog 68 20 68 20 100 100 N N/A 30.00 1016 1 1 N/A
3:49 am 03:49 Mostly Cloudy with Mist and Fog 66 19 66 19 100 100 N N/A 30.00 1016 1 1 N/A
3:53 am 03:53 Mostly Cloudy with Mist and Fog 67 19.4 67 19.4 100 100 N N/A 30.02 1017 1 1 N/A
4:01 am 04:01 Mostly Clear with Mist and Fog 68 20 68 20 100 100 W 3 6 30.00 1016 1 2 N/A
4:03 am 04:03 Mostly Clear with Mist and Fog 68 20 68 20 100 100 N N/A 30.00 1016 3 5 N/A
4:09 am 04:09 Mostly Clear with Mist and Fog 66 18.9 66 18.9 100 100 N N/A 30.00 1016 2 2 N/A
4:19 am 04:19 Clear with Mist and Fog 66 18.9 66 18.9 100 100 N N/A 30.00 1016 3 5 N/A
4:34 am 04:34 Clear with Mist and Fog 67 19.4 67 19.4 100 100 N N/A 30.00 1016 3 4 N/A
4:39 am 04:39 Mostly Clear with Mist and Fog 67 19.4 67 19.4 100 100 N N/A 30.00 1016 3 5 N/A
4:50 am 04:50 Partly Cloudy with Mist and Fog 66 19 66 19 100 100 N N/A 30.03 1017 2 3 N/A
4:53 am 04:53 Partly Cloudy with Mist and Fog 66 18.9 66 18.9 100 100 N N/A 30.04 1017 1 2 N/A
4:56 am 04:56 Mostly Cloudy with Mist and Fog 66 18.9 66 18.9 100 100 N N/A 30.03 1017 1 1 N/A
5:06 am 05:06 Mostly Cloudy with Fog 66 18.9 66 18.9 100 100 N N/A 30.03 1017 0 0 N/A
5:17 am 05:17 Mostly Cloudy with Mist and Fog 66 18.9 66 18.9 100 100 N N/A 30.03 1017 1 2 N/A
5:31 am 05:31 Mostly Cloudy with Mist and Fog 67 19.4 67 19.4 100 100 N N/A 30.03 1017 1 2 N/A
5:39 am 05:39 Mostly Cloudy with Mist and Fog 66 18.9 66 18.9 100 100 N N/A 30.03 1017 3 5 N/A
5:43 am 05:43 Cloudy with Mist and Fog 66 18.9 66 18.9 100 100 N N/A 30.03 1017 1 2 N/A
5:51 am 05:51 Cloudy with Fog 66 19 66 19 100 100 N N/A 30.03 1017 1 1 N/A
5:53 am 05:53 Cloudy with Fog 66 18.9 66 18.9 100 100 N N/A 30.05 1018 1 1 N/A
6:00 am 06:00 Cloudy with Mist and Fog 67 19.4 67 19.4 100 100 N N/A 30.03 1017 3 4 N/A
6:07 am 06:07 Cloudy with Mist and Fog 67 19.4 67 19.4 100 100 N N/A 30.03 1017 6 10 N/A
6:28 am 06:28 Mostly Cloudy with Mist and Fog 66 18.9 66 18.9 100 100 N N/A 30.03 1017 3 4 N/A
6:36 am 06:36 Partly Cloudy with Mist and Fog 67 19.4 67 19.4 100 100 N N/A 30.03 1017 3 5 N/A
6:53 am 06:53 Mostly Clear with Mist and Fog 67 19.4 67 19.4 100 100 WSW 3 6 30.06 1018 5 8 N/A
7:53 am 07:53 Mostly Sunny 68 20 68 20 100 100 WSW 3 6 30.07 1018 7 11 N/A
8:53 am 08:53 Partly Cloudy 71 21.7 70 21.1 96 96 N N/A 30.08 1019 10 16 N/A
9:53 am 09:53 Mostly Sunny 76 24.4 73 22.8 91 91 S 6 9 30.08 1019 10 16 N/A
10:53 am 10:53 Sunny 79 26.1 73 22.8 82 82 S 7 11 30.08 1019 10 16 N/A
11:53 am 11:53 Mostly Sunny 84 28.9 73 22.8 70 70 SSW 10 17 30.08 1019 10 16 N/A
12:53 pm 12:53 Partly Cloudy 87 30.6 73 22.8 63 63 SW 13 20 30.08 1019 10 16 N/A
1:53 pm 13:53 Mostly Cloudy 85 29.4 72 22.2 65 65 WSW 10 17 30.06 1018 10 16 N/A
2:53 pm 14:53 Partly Cloudy 86 30 71 21.7 61 61 SW 10 17 30.03 1017 10 16 N/A
3:53 pm 15:53 Mostly Sunny 87 30.6 72 22.2 61 61 SW 9 15 30.00 1016 10 16 N/A
4:53 pm 16:53 Partly Cloudy 86 30 70 21.1 59 59 SW 12 19 30.01 1016 10 16 N/A
5:53 pm 17:53 Partly Cloudy 84 28.9 71 21.7 65 65 SSW 10 17 30.02 1017 10 16 N/A
6:53 pm 18:53 Mostly Sunny 80 26.7 72 22.2 76 76 SSW 5 7 30.04 1017 10 16 N/A
7:53 pm 19:53 Clear 74 23.3 72 22.2 94 94 N N/A 30.06 1018 10 16 N/A
8:53 pm 20:53 Clear 75 23.9 72 22.2 90 90 N N/A 30.06 1018 10 16 N/A
9:53 pm 21:53 Clear 73 22.8 71 21.7 94 94 SSW 6 9 30.07 1018 10 16 N/A
10:53 pm 22:53 Clear 72 22.2 71 21.7 97 97 SW 6 9 30.08 1019 10 16 N/A
11:53 pm 23:53 Clear 71 21.7 71 21.7 100 100 S 3 6 30.09 1019 10 16 N/A

Powered by AerisWeather